Weather Roundup
Issued by NWS

Home | Current Version | Previous Version | Text Only | Print | Product List | Glossary On
Versions: 1 2 3 4 5 6 7 8 9 10 11 12 13 14 15 16 17 18 19 20 21 22 23 24 25 26 27 28 29 30 31 32 33 34 35 36 37 38 39 40 41 42 43 44 45 46 47 48 49 50
000
NZUS93 KARX 231359
HRRWXR

CURRENT HOURLY OBSERVATIONS ACROSS
MUCH OF THE UPPER MISSISSIPPI VALLEY
NATIONAL WEATHER SERVICE LA CROSSE WI
900 AM CDT THU MAR 23 2017


...SOUTHEAST MINNESOTA...


CITY           SKY/WX    TMP DP  RH WIND       PRES   REMARKS
ROCHESTER      CLOUDY    34  22  61 SE23G31   30.13F WCI  22
ROCHESTER/MAYO CLOUDY    35  21  57 SE14G25   30.14F WCI  25
WINONA         CLOUDY    36  23  60 SE13      30.20F WCI  27
AUSTIN         CLOUDY    34  23  64 SE13G22   30.12F WCI  25
ALBERT LEA     CLOUDY    34  23  64 SE24G32   30.09F WCI  21
DODGE CENTER   CLOUDY    34  23  64 SE20G25   30.11F WCI  22
PRESTON        CLOUDY    33  21  61 SE14G22   30.16F WCI  23
OWATONNA       CLOUDY    36  21  55 SE21G28   30.09F WCI  24
FARIBAULT      CLOUDY    36  25  64 SE13      30.10F WCI  27
$$

...ELSEWHERE IN MINNESOTA...


CITY           SKY/WX    TMP DP  RH WIND       PRES   REMARKS
MINNEAPOLIS    CLOUDY    38  22  52 SE12      30.11F WCI  30
INTNL FALLS    SUNNY     34  21  59 VRB6      29.96F WCI  29
DULUTH         CLOUDY    30  26  85 SE14      30.07F WCI  19
RED WING       CLOUDY    37  19  48 SE10      30.15F WCI  30
REDWOOD FALLS  CLOUDY    37  23  56 SE16      30.01F WCI  28
MANKATO        CLOUDY    36  24  62 S18G28    30.06F WCI  26
WORTHINGTON    PTSUNNY   37  22  54 SE18      29.97F WCI  27
FAIRMONT       CLOUDY    36  24  62 S22G29    30.04F WCI  25
$$

...SOUTHWEST WISCONSIN...


CITY           SKY/WX    TMP DP  RH WIND       PRES   REMARKS
LA CROSSE      CLOUDY    36  22  56 SE14      30.23F WCI  27
PRAIRIE DU CHI CLOUDY    35  20  55 E10       30.26F WCI  27
BOSCOBEL       CLOUDY    35  21  56 VRB5      30.29F WCI  31
LONE ROCK      NOT AVBL
PLATTEVILLE    CLOUDY    33  24  68 SE16      30.29F WCI  23
FORT MC COY    CLOUDY    34  21  59 SE6       30.27F WCI  29
MAUSTON-NEW LI CLOUDY    32  22  67 SE8       30.28F WCI  25
VIROQUA        CLOUDY    32  21  64 SE18      30.22F WCI  20
WIS DELLS      CLOUDY    32  22  66 SE9       30.31F WCI  24
$$

...ELSEWHERE IN WISCONSIN...


CITY           SKY/WX    TMP DP  RH WIND       PRES   REMARKS
MILWAUKEE      CLOUDY    35  21  56 SE16      30.41R WCI  25
MADISON        CLOUDY    33  21  61 SE15      30.33F WCI  23
GREEN BAY      CLOUDY    33  28  81 S10       30.37F WCI  25
EAU CLAIRE     NOT AVBL
BLACK RVR FLS  CLOUDY    34  18  52 SE7       30.25F WCI  28
MEDFORD        CLOUDY    28  19  69 SE13      30.24F WCI  17
WAUSAU         CLOUDY    28  18  66 SE10      30.28F WCI  19
WIS RAPIDS     CLOUDY    30  21  69 SE10      30.30F WCI  21
MARSHFIELD     CLOUDY    30  18  60 SE13      30.24F WCI  20
RICE LAKE      CLOUDY    32  24  71 SE14G21   30.18F WCI  22
$$

...NORTHEAST IOWA...


CITY           SKY/WX    TMP DP  RH WIND       PRES   REMARKS
WATERLOO       CLOUDY    36  22  56 SE15      30.18F WCI  27
DUBUQUE        CLOUDY    34  23  64 SE15      30.26F WCI  24
DECORAH        CLOUDY    34  21  60 SE13G21   30.18F WCI  25
MASON CITY     CLOUDY    34  24  67 SE20G25   30.13F WCI  23
CHARLES CITY   CLOUDY    34  21  60 SE20G28   30.15F WCI  22
OELWEIN        CLOUDY    34  23  64 SE23      30.20F WCI  22
$$

...ELSEWHERE IN IOWA...


CITY           SKY/WX    TMP DP  RH WIND       PRES   REMARKS
DES MOINES     CLOUDY    43  25  49 SE17      30.12F
IOWA CITY      CLOUDY    39  23  52 SE14      30.25F WCI  31
FORT DODGE     CLOUDY    39  19  45 SE12G23   30.08F WCI  32
MARSHALLTOWN   CLOUDY    37  22  54 SE18G24   30.15F WCI  27
CEDAR RAPIDS   CLOUDY    37  23  56 SE17      30.21F WCI  27
$$

...NORTHERN ILLINOIS...


CITY           SKY/WX    TMP DP  RH WIND       PRES   REMARKS
CHICAGO-OHARE  CLOUDY    35  19  52 SE14      30.40S WCI  26
CHICAGO-MIDWAY CLOUDY    34  19  54 SE12G20   30.41F WCI  25
MOLINE         CLOUDY    37  22  54 SE14      30.29F WCI  28
ROCKFORD       CLOUDY    35  21  56 SE16      30.38S WCI  25
PEORIA         CLOUDY    37  23  56 SE12      30.34F WCI  29
$$

NOTE: "FAIR" INDICATES FEW OR NO CLOUDS BELOW 12,000 FEET WITH NO
SIGNIFICANT WEATHER AND/OR OBSTRUCTIONS TO VISIBILITY. WIND
SPEEDS ARE IN MILES-PER-HOUR.




USA.gov is the U.S. government's official web portal to all federal, state and local government web resources and services.